Regional Weather Roundup
Issued by NWS Newport/Morehead, NC

Current Version | Previous Version | Graphics & Text | Print | Product List | Glossary Off
Versions: 1 2 3 4 5 6 7 8 9 10 11 12 13 14 15 16 17 18 19 20 21 22 23 24 25 26 27 28 29 30 31 32 33 34 35 36 37 38 39 40 41 42 43 44 45 46 47 48 49 50

306
ASUS42 KMHX 170725
RWRMHX
WEATHER ROUNDUP FOR EASTERN NORTH CAROLINA
NATIONAL WEATHER SERVICE NEWPORT/MOREHEAD CITY NC
300 AM EDT THU AUG 17 2017

NOTE: "FAIR" INDICATES FEW OR NO CLOUDS BELOW 12,000 FEET
WITH NO SIGNIFICANT WEATHER AND/OR OBSTRUCTIONS TO VISIBILITY

NCZ015>017-031-032-045>047-102-103-170800-
NORTH COAST

CITY           SKY/WX    TMP DP  RH WIND       PRES   REMARKS
EDENTON        CLEAR     74  72  94 CALM      30.04S FOG
ELIZABETH CITY FOG       71  71 100 CALM      30.03F VSB 3/4
KITTY HAWK     MOSUNNY   73  73 100 CALM      30.02S
MANTEO         PTCLDY    71  71  98 CALM      30.04R

$$

NCZ045>047-081-094-103-104-170800-
CENTRAL COAST

CITY           SKY/WX    TMP DP  RH WIND       PRES   REMARKS
FRISCO         MOCLDY    75  74  96 E3        30.03S

$$

NCZ095-097-098-100-101-170800-
SOUTHERN COAST

CITY           SKY/WX    TMP DP  RH WIND       PRES   REMARKS
BEAUFORT       PTCLDY    76  76 100 CALM      30.02F
CEDAR ISLAND   NOT AVBL
JACKSONVILLE   CLEAR     77  77 100 CALM      30.01F
PINEY ISLAND   MOSUNNY  N/A N/A N/A CALM      30.03S
WILMINGTON     CLEAR     76  74  93 CALM      30.01


$$

NCZ011>013-027>030-043-044-078>080-089-090>093-098-170800-
COASTAL PLAIN

CITY           SKY/WX    TMP DP  RH WIND       PRES   REMARKS
AHOSKIE          N/A     72  72  99 CALM      30.03F FOG
CLINTON        CLOUDY    77  77 100 CALM      30.02F
ELIZABETHTOWN  NOT AVBL
GOLDSBORO      PTCLDY    76  73  89 CALM      30.03S FOG
GREENVILLE     PTCLDY    77  77 100 CALM      30.04F
HAVELOCK       CLEAR     76  74  93 CALM      30.03F
KENANSVILLE    CLEAR     73  73 100 CALM      30.02F FOG
KINSTON        FOG       76  76  98 CALM      30.03F VSB 3/4
NEW BERN       CLOUDY    76  76 100 CALM      30.04S FOG
RICHLANDS      CLEAR     75  73  94 CALM      30.02F FOG
ROCKY MOUNT    CLOUDY    75  74  96 CALM      30.03F FOG
WASHINGTON     CLEAR     76  75  98 CALM      30.03S FOG
WHITEVILLE     CLEAR     75  74  96 CALM      30.01S

$$

AMZ130-135-150-152-154-156-158-170-250-252-270-ANZ085-086-088-633-658-670-170800-
MARINE OBSERVATIONS

STATION/POSITION TIME  TEMP    WIND        PRES    WAVE   SWELL
                       AIR SEA DIR/SP/G            HT/PER HT/PER
                 (UTC) (F)     (DEG/KT/KT) (MB)    (FT/S) (FT/S)
CHESAPEAKE LIGHT NOT AVBL
64 E VA BEACH    0650   76 77   10/  2/  2 1017.1    2/ 8   2/ 8
DUCK             0700   76 78  300/  2/  3 1016.5
2 E DUCK         0700      78                N/A     2/ 8
OREGON INLET     0700   76 82   CALM  /  1 1016.7
13E OREGON INLT  0648      79                N/A     2/ 7   2/ 7
HATTERAS CG      0700   79 83   50/  3/  6 1016.7
DIAMOND BUOY     0650   80 83   10/  8/ 10 1016.5    2/ 8   2/ 8
CAPE LOOKOUT     0700   80      CALM  /  1 1016.2
BEAUFORT LAB     0700   80 82   70/  3/  3 1016.0
30 SE NEW RVR IN 0608   79 84   CALM  /  2 1016.8
30 SE NEW RVR IN 0613      84                N/A     2/ 7
27 SE WRIGHTSVLE 0608   82 84  130/  2/  4 1016.5
5 SE WRIGHTSVLE  0608   82 83   70/  2/  4 1016.2
225 S CAPE HAT   0650   84 84  250/ 14/ 16 1016.3    3/ 6   2/ 8
41 SE CHARLESTON 0710   84 84  230/ 10/ 12 1015.5

$$




USA.gov is the U.S. government's official web portal to all federal, state and local government web resources and services.